Location: Casper
(42.8670°N, 106.3130°W)
Time: 07:24:02
(UTC-06:00)

Daily predictions for brighter satellites

Satellite Brightness Start Highest point End
(mag) Time Altitude Azimuth Time Altitude Azimuth Time Altitude Azimuth
Thor Agena Rocket 3.8 19:22:42 10° NNE 19:27:49 49° E 19:32:50 10° S
Cosmos 1378 3.8 19:26:54 10° N 19:30:25 36° ENE 19:33:55 10° SE
FREGAT/IRIS 3.1 19:30:33 10° SE 19:33:24 38° ENE 19:36:15 10° N
CZ-4 R/B 4.3 19:31:24 10° SSW 19:34:45 23° W 19:38:09 10° NW
Cosmos 2263 4.5 19:29:58 10° NNW 19:35:36 76° WSW 19:41:14 10° SSE
Cosmos 1943 3.8 19:30:35 10° SW 19:36:12 64° WNW 19:41:53 10° NNE
SPOT 3 Rocket 4.4 19:36:29 10° S 19:41:31 56° W 19:46:37 10° NNW
Cosmos 1825 Rocket 3.8 19:40:02 10° N 19:44:27 79° W 19:48:52 10° S
Lacrosse 5 3.9 19:41:11 10° WNW 19:45:26 27° SW 19:49:40 10° S
CZ-2D R/B 4.4 19:43:20 10° SE 19:46:28 25° ENE 19:49:37 10° NNE
Cosmos 1356 Rocket 4.0 19:46:30 10° N 19:50:33 38° ENE 19:54:34 10° SE
Meteor 2-13 Rocket 4.4 19:44:42 10° S 19:50:41 63° E 19:56:42 10° NNE
Cosmos 1898 Rocket 4.0 19:48:52 10° NNW 19:53:59 62° WSW 19:59:04 10° S
Cosmos 1814 Rocket 3.9 19:52:38 10° SSW 19:57:49 85° ESE 20:02:58 10° NNE
BREEZE-M DEB (TANK) 4.0 19:54:53 10° WNW 19:58:17 45° N 20:08:40 10° E
Cosmos 371 Rocket 4.1 19:54:22 10° SW 19:59:09 56° WNW 20:03:58 10° NNE
SJ-6B 2.8 19:55:22 10° SSE 19:59:21 66° ENE 20:03:16 10° N
Meteor 1-24 Rocket 4.0 19:55:23 10° N 20:01:13 51° ENE 20:06:53 10° SSE
Cosmos 990 Rocket 4.1 19:58:07 10° NNW 20:03:18 81° WSW 20:08:26 10° SSE
Cosmos 1125 Rocket 4.3 19:59:43 10° N 20:04:31 33° ENE 20:07:53 17° ESE
USA 81 4.1 20:03:40 10° N 20:08:59 86° W 20:14:15 10° S
Cosmos 2181 Rocket 4.3 20:03:55 10° NNW 20:10:06 70° W 20:16:10 10° S
SL-08 ROCKET BODY 4.3 20:04:27 10° S 20:10:19 87° E 20:16:19 10° N
Cosmos 1943 Rocket 3.3 20:08:03 10° NW 20:13:20 44° WSW 20:18:36 10° S
Envisat 3.5 20:11:57 16° SE 20:15:39 40° ENE 20:20:22 10° N
Cosmos 2154 Rocket 4.3 20:17:35 10° SSE 20:23:19 41° E 20:29:07 10° NNE
H-2A R/B 3.5 20:20:55 10° S 20:24:32 52° W 20:28:13 10° NNW
Resurs 1-3 3.7 20:23:04 18° SE 20:26:08 56° ENE 20:30:25 10° N
Cosmos 2074 Rocket 3.9 20:21:50 10° S 20:28:02 85° E 20:34:16 10° N
Cosmos 841 Rocket 3.8 20:32:00 10° SSW 20:37:07 67° WNW 20:42:16 10° NNE
Cosmos 1766 3.3 20:35:40 10° S 20:39:37 82° W 20:43:32 10° N
Meteor 1-22 Rocket 4.2 20:34:55 10° S 20:40:41 86° W 20:46:14 10° N
ATLAS 2AS CENTAUR R/B 4.0 20:35:49 10° NNW 20:42:52 31° NE 20:46:19 23° ENE
Cosmos 1758 4.3 20:44:45 31° NE 20:44:45 31° NE 20:47:15 10° NNE
Resurs 01 Rocket 1.6 20:41:53 18° SSE 20:45:06 85° WSW 20:49:33 10° NNW
MOS 1-B Rocket 3.9 20:39:42 13° SSE 20:45:25 77° ENE 20:51:07 10° N
Cosmos 2084 4.3 20:41:54 10° WSW 20:45:47 45° NW 20:49:33 10° NNE
BREEZE-M DEB (TANK) 3.2 20:44:04 10° NW 20:45:13 21° NNW 20:45:13 21° NNW
USA 186 3.1 20:48:27 24° NNW 20:48:27 24° NNW 20:49:34 10° NNW
Cosmos 304 Rocket 4.4 20:42:39 10° SW 20:47:21 57° WNW 20:52:06 10° NNE
COSMOS 2406 3.1 20:44:21 10° SSW 20:50:04 88° ESE 20:55:51 10° NNE
GP-B 2.9 20:46:54 10° N 20:51:22 79° E 20:53:47 27° S
Cosmos 1656 Rocket 4.5 20:46:15 10° NW 20:51:41 50° WSW 20:57:01 10° S
NOSS 3-1 (A) 4.1 20:44:51 10° NW 20:52:31 80° WSW 20:58:20 22° SSE
Cosmos 1939 Rocket 2.9 20:53:05 55° ENE 20:53:05 55° ENE 20:56:43 10° N
Meteor 1-21 Rocket 4.4 20:49:18 10° N 20:54:56 51° ENE 20:56:11 43° ESE
Nadezhda 3 Rocket 3.9 20:48:43 10° N 20:55:03 73° E 20:58:49 25° SSE
ARGOS 4.5 21:01:24 24° NE 21:01:24 24° NE 21:04:56 10° N
Cosmos 540 Rocket 3.4 20:56:11 10° SSW 21:01:17 81° WNW 21:06:26 10° NNE
Cosmos 1812 Rocket 3.6 20:56:58 10° S 21:01:24 82° W 21:05:54 10° N
YAOGAN 6 3.9 21:07:04 31° N 21:07:04 31° N 21:09:08 10° N
Cosmos 2369 4.3 21:01:10 10° N 21:06:25 37° ENE 21:06:32 37° ENE
Cosmos 1674 3.6 21:03:08 10° N 21:05:33 37° NNE 21:05:33 37° NNE
SJ-11-01 4.1 21:12:55 72° SSE 21:13:24 88° E 21:18:09 10° NNW
Cosmos 1805 4.0 21:14:16 27° SW 21:16:04 51° W 21:19:53 10° N
Okean 3 Rocket 4.0 21:16:09 10° N 21:19:39 52° NNE 21:19:39 52° NNE
Spot 2 Rocket 4.4 21:19:11 20° SSW 21:22:20 46° W 21:27:11 10° NNW
BREEZE M DEB (TANK) 3.9 21:18:48 10° WNW 21:22:10 25° NNW 21:22:10 25° NNW
Cosmos 1295 Rocket 4.3 21:22:26 52° SSE 21:23:56 76° E 21:30:02 10° N
SL-8 Rocket 4.1 21:31:36 56° ENE 21:31:36 56° ENE 21:36:49 10° NNE
Cosmos 1953 4.0 21:39:03 29° NNW 21:39:03 29° NNW 21:41:16 10° N
GEOS 3 Rocket 3.7 21:32:35 10° NE 21:38:00 82° NW 21:43:22 10° SW
Cosmos 1809 Rocket 4.3 21:40:13 83° E 21:40:13 83° E 21:46:22 10° N
Cosmos 2278 3.9 21:36:20 10° NNW 21:41:11 59° NNE 21:41:11 59° NNE
Helios 1A 4.5 21:44:06 33° NNW 21:44:06 33° NNW 21:46:27 10° NNW
ERS-1 Rocket 3.9 21:51:42 41° N 21:51:42 41° N 21:55:00 10° N
Cosmos 2322 Rocket 4.5 21:54:22 10° NNE 21:55:46 13° NNE 21:55:46 13° NNE
H-2A R/B 3.7 22:01:25 24° N 22:01:25 24° N 22:03:33 10° N
Cosmos 1697 Rocket 3.7 22:03:38 10° NNW 22:07:17 39° N 22:07:17 39° N
Cosmos 1980 Rocket 3.7 22:04:28 10° N 22:07:30 28° NNE 22:07:30 28° NNE
SL-16 R/B 4.4 22:29:14 10° N 22:31:06 17° NNE 22:31:06 17° NNE
ATLAS 2AS CENTAUR R/B 3.1 22:26:47 10° NW 22:33:45 69° NW 22:33:45 69° NW
USA 267 4.4 23:01:28 36° N 23:01:28 36° N 23:06:03 10° NW
CZ-3A R/B 4.2 22:58:59 10° NW 23:14:44 62° N 23:14:44 62° N
